Weather Roundup
Issued by NWS

Home | Current Version | Previous Version | Graphics & Text | Print | Product List | Glossary Off
Versions: 1 2 3 4 5 6 7 8 9 10 11 12 13 14 15 16 17 18 19 20 21 22 23 24 25 26 27 28 29 30 31 32 33 34 35 36 37 38 39 40 41 42 43 44 45 46 47 48 49 50

805
NZUS93 KARX 232210
HRRWXR

CURRENT HOURLY OBSERVATIONS ACROSS
MUCH OF THE UPPER MISSISSIPPI VALLEY
NATIONAL WEATHER SERVICE LA CROSSE WI
500 PM CDT SUN APR 23 2017


...SOUTHEAST MINNESOTA...


CITY           SKY/WX    TMP DP  RH WIND       PRES   REMARKS
ROCHESTER      MOSUNNY   70  30  22 SW10      29.97F
ROCHESTER/MAYO FAIR      71  30  22 W8        29.96F
WINONA         SUNNY     70  32  24 SW5       29.97F
AUSTIN         CLOUDY    70  30  23 SW13G20   29.96F
ALBERT LEA     CLOUDY    70  21  16 SW9G17    29.95F
DODGE CENTER   CLOUDY    70  28  21 SW14G20   29.96F
PRESTON        SUNNY     68  30  23 SW9       29.99F
OWATONNA       CLOUDY    72  21  15 SW13G25   29.94F
FARIBAULT      MOSUNNY   72  28  20 SW12      29.93F
$$

...ELSEWHERE IN MINNESOTA...


CITY           SKY/WX    TMP DP  RH WIND       PRES   REMARKS
MINNEAPOLIS    CLOUDY    69  33  26 VRB6      29.92F
INTNL FALLS    CLOUDY    37  13  37 E3        30.13F
DULUTH         CLOUDY    34  29  82 E15       30.09F WCI  24
RED WING       MOSUNNY   72  28  20 SW3       29.93F
REDWOOD FALLS  CLOUDY    71  29  21 S21G26    29.85F
MANKATO        CLOUDY    71  26  18 SW14      29.91F
WORTHINGTON    MOSUNNY   69  30  23 S22G29    29.90F
FAIRMONT       MOSUNNY   71  27  19 SW17G23   29.92F
$$

...SOUTHWEST WISCONSIN...


CITY           SKY/WX    TMP DP  RH WIND       PRES   REMARKS
LA CROSSE      SUNNY     74  30  19 SW8       29.96F
PRAIRIE DU CHI SUNNY     72  26  18 SW7       29.98F
BOSCOBEL       SUNNY     73  30  20 SW9       29.99F
LONE ROCK      SUNNY     72  33  24 W7        29.98F
PLATTEVILLE    SUNNY     71  32  24 W7        30.01F
FORT MC COY    MOSUNNY   71  33  24 W10G16    29.98S
CAMP DOUGLAS   MOSUNNY   71  33  24 S3        29.98S
MAUSTON-NEW LI PTCLDY    71  36  27 W10G16    29.97F
VIROQUA        FAIR      70  32  24 W7        30.00S
WIS DELLS      SUNNY     70  30  22 S7        29.98F
$$

...ELSEWHERE IN WISCONSIN...


CITY           SKY/WX    TMP DP  RH WIND       PRES   REMARKS
MILWAUKEE      MOSUNNY   45  37  73 NE15G23   30.09S
MADISON        MOSUNNY   71  33  24 CALM      29.99F
GREEN BAY      SUNNY     49  39  68 NE18      30.09F
EAU CLAIRE     MOSUNNY   67  39  35 W3        29.96F
BLACK RVR FLS  FAIR      71  28  20 SW9       29.97F
MEDFORD        MOSUNNY   62  42  47 W6        29.99F
WAUSAU         MOSUNNY   63  40  42 CALM      29.99F
WIS RAPIDS     PTSUNNY   66  43  43 SE12      30.00R
MARSHFIELD     MOSUNNY   68  36  30 W7        29.98S
RICE LAKE      CLOUDY    62  40  44 NE3       30.00F
$$

...NORTHEAST IOWA...


CITY           SKY/WX    TMP DP  RH WIND       PRES   REMARKS
WATERLOO       SUNNY     72  30  21 SW12      29.98F
DUBUQUE        SUNNY     70  34  26 W8        30.01F
DECORAH        SUNNY     70  30  23 SW8       29.98S
MASON CITY     SUNNY     71  29  21 SW14G22   29.98F
CHARLES CITY   PTSUNNY   72  25  17 SW15G22   29.99F
OELWEIN        SUNNY     70  30  23 SW13      30.00S
$$

...ELSEWHERE IN IOWA...


CITY           SKY/WX    TMP DP  RH WIND       PRES   REMARKS
DES MOINES     PTSUNNY   73  31  21 SW12      30.00F
IOWA CITY      SUNNY     72  31  22 W8        30.03F
FORT DODGE     MOSUNNY   72  30  21 S15G21    29.97F
MARSHALLTOWN   SUNNY     71  31  22 SW14      29.99F
CEDAR RAPIDS   SUNNY     70  33  25 SW7       30.00F
$$

...NORTHERN ILLINOIS...


CITY           SKY/WX    TMP DP  RH WIND       PRES   REMARKS
CHICAGO-OHARE  MOSUNNY   70  31  23 E10       30.03S
CHICAGO-MIDWAY MOSUNNY   67  33  28 E10       30.05S
MOLINE         SUNNY     73  32  22 CALM      30.02F
ROCKFORD       MOSUNNY   72  36  26 CALM      30.03F
PEORIA         SUNNY     71  25  17 NE5       30.04S
$$

NOTE: "FAIR" INDICATES FEW OR NO CLOUDS BELOW 12,000 FEET WITH NO
SIGNIFICANT WEATHER AND/OR OBSTRUCTIONS TO VISIBILITY. WIND
SPEEDS ARE IN MILES-PER-HOUR.




USA.gov is the U.S. government's official web portal to all federal, state and local government web resources and services.